Regional Weather Roundup
Issued by NWS

Home | Current Version | Previous Version | Graphics & Text | Print | Product List | Glossary On
Versions: 1 2 3 4 5 6 7 8 9 10 11 12 13 14 15 16 17 18 19 20 21 22 23 24 25 26 27 28 29 30 31 32 33 34 35 36 37 38 39 40 41 42 43 44 45 46 47 48 49 50
000
ASUS43 KOAX 270803
RWRNE

WEATHER ROUNDUP FOR NEBRASKA
NATIONAL WEATHER SERVICE OMAHA NE
300 AM CDT SUN MAY 27 2018

NOTES: SATELLITE DATA IS BEING USED TO AUGMENT CLOUD COVER ABOVE
       12000 FEET.
       "FAIR" INDICATES FEW OR NO CLOUDS BELOW 12,000 FEET WITH NO
       SIGNIFICANT WEATHER AND/OR OBSTRUCTIONS TO VISIBILITY.


NEZ001>004-019>022-054>056-270900-
NEBRASKA PANHANDLE

CITY           SKY/WX    TMP DP  RH WIND       PRES   REMARKS
SCOTTSBLUFF    CLOUDY    73  48  41 E14       29.74F
ALLIANCE       CLOUDY    70  49  47 SE17      29.76F
CHADRON        CLOUDY    76  47  35 S32G40    29.67F
GORDON         FAIR      75  46  35 S15G21    29.76F
KIMBALL        CLOUDY    69  49  48 S16G22    29.82R
SIDNEY         MOCLDY    69  47  45 S17       29.81S
$$

NEZ057>060-069>072-079>082-270900-
SOUTHWEST NEBRASKA

CITY           SKY/WX    TMP DP  RH WIND       PRES   REMARKS
NORTH PLATTE   CLOUDY    74  54  49 S13G25    29.81S
IMPERIAL       MOCLDY    71  51  49 S15       29.81S
LEXINGTON      CLOUDY    73  55  52 S10G18    29.83S
MCCOOK         CLOUDY    71  55  56 S8        29.82S
OGALLALA       MOCLDY    71  51  48 S16G22    29.79S
$$

NEZ005>010-023>029-035>040-094-270900-
NORTH CENTRAL NEBRASKA

CITY           SKY/WX    TMP DP  RH WIND       PRES   REMARKS
VALENTINE      CLOUDY    75  54  47 S10       29.75F
AINSWORTH      MOCLDY    67  58  72 S9        29.78S
BROKEN BOW     PTCLDY    72  56  57 S8        29.82R
O`NEILL        PTCLDY    75  60  60 S5        29.79S
ORD            PTCLDY    69  58  67 S10       29.78S
THEDFORD       CLOUDY    72  54  52 S14       29.81S
$$

NEZ041-046>049-061>064-073>077-083>087-270900-
SOUTH CENTRAL NEBRASKA

CITY           SKY/WX    TMP DP  RH WIND       PRES   REMARKS
GRAND ISLAND   CLEAR     76  57  51 SW10      29.81S
AURORA         CLEAR     72  57  59 SW8       29.81R
HASTINGS       CLEAR     73  58  59 S7        29.83S
HEBRON         CLEAR     74  60  60 SW8       29.81S
HOLDREGE       MOCLDY    71  57  61 S12       29.84R
KEARNEY        PTCLDY    74  58  57 SW15      29.83R
YORK           CLEAR     73  59  60 SW8       29.81S
$$

NEZ011>018-030>034-042>045-270900-
NORTHEAST NEBRASKA

CITY           SKY/WX    TMP DP  RH WIND       PRES   REMARKS
NORFOLK        PTCLDY    67  59  75 SE5       29.78S
ALBION         PTCLDY    76  59  56 SE3       29.80S
COLUMBUS       PTCLDY    71  61  70 E3        29.80R
FREMONT        CLEAR     80  59  49 S3        29.79S
TEKAMAH        CLEAR     69  61  75 SW3       29.77S
WAYNE          CLEAR     69  58  67 SW5       29.78S
$$

NEZ050>053-065>068-078-088>093-270900-
SOUTHEAST NEBRASKA

CITY           SKY/WX    TMP DP  RH WIND       PRES   REMARKS
LINCOLN        CLEAR     73  62  68 S3        29.80R
OMAHA EPPLEY   CLEAR     74  63  68 SW3       29.78R
BEATRICE       CLEAR     75  64  66 S5        29.81R
FALLS CITY     CLEAR     75  63  66 CALM      29.79S
NEBRASKA CITY  PTCLDY    81  62  53 SW10      29.81R
PLATTSMOUTH    PTCLDY    78  58  50 SW7       29.79S
$$

NEZ044-045-051>053-067-270900-
OMAHA AREA

CITY           SKY/WX    TMP DP  RH WIND       PRES   REMARKS
OMAHA EPPLEY   CLEAR     74  63  68 SW3       29.78R
FREMONT        CLEAR     80  59  49 S3        29.79S
MILLARD        PTCLDY    72  64  77 CALM      29.79R
OFFUTT AFB     CLEAR     68  63  84 CALM      29.77S
PLATTSMOUTH    PTCLDY    78  58  50 SW7       29.79S
WAHOO          FAIR      76  56  51 S6        29.79S
$$




USA.gov is the U.S. government's official web portal to all federal, state and local government web resources and services.